This is the latest recevied weather packets stored in our database for station/object SP2OFR-13. If no packets are shown the sender has not sent any weather packets the latest 10 day(s).
| Time | Temp. | Humidity | Pressure | Rain* | Wind** | Luminosity | Snow |
|---|---|---|---|---|---|---|---|
| 1778305709 | 8.89° C | 81% | 1025.9 hPa | 0 mm | - | - | - |
| 1778305108 | 7.78° C | 88% | 1023.9 hPa | 0 mm | - | - | - |
| 1778304508 | 6.67° C | 88% | 1023.9 hPa | 0 mm | - | - | - |
| 1778303907 | 6.67° C | 89% | 1022.9 hPa | 0 mm | - | - | - |
| 1778303306 | 6.67° C | 89% | 1024.9 hPa | 0 mm | - | - | - |
| 1778302705 | 6.11° C | 91% | 1025 hPa | 0 mm | - | - | - |
| 1778302104 | 6.11° C | 91% | 1025 hPa | 0 mm | - | - | - |
| 1778301504 | 6.11° C | 91% | 1023.9 hPa | 0 mm | - | - | - |
| 1778300903 | 5.56° C | 91% | 1022.9 hPa | 0 mm | - | - | - |
| 1778300302 | 5° C | 92% | 1023 hPa | 0 mm | - | - | - |
| 1778299701 | 5° C | 92% | 1025 hPa | 0 mm | - | - | - |
| 1778299100 | 5° C | 92% | 1025 hPa | 0 mm | - | - | - |
| 1778298500 | 5° C | 92% | 1025 hPa | 0 mm | - | - | - |
| 1778297898 | 5° C | 92% | 1024 hPa | 0 mm | - | - | - |
| 1778297297 | 5° C | 92% | 1023 hPa | 0 mm | - | - | - |
| 1778296696 | 5° C | 92% | 1023 hPa | 0 mm | - | - | - |
| 1778296096 | 5° C | 92% | 1025 hPa | 0 mm | - | - | - |
| 1778295495 | 5° C | 91% | 1025 hPa | 0 mm | - | - | - |
| 1778294894 | 5° C | 91% | 1025 hPa | 0 mm | - | - | - |
| 1778294293 | 5° C | 90% | 1024 hPa | 0 mm | - | - | - |
| 1778293693 | 5.56° C | 89% | 1023 hPa | 0 mm | - | - | - |
| 1778293092 | 5.56° C | 88% | 1023 hPa | 0 mm | - | - | - |
| 1778292491 | 5.56° C | 87% | 1025 hPa | 0 mm | - | - | - |
| 1778291890 | 6.11° C | 86% | 1025 hPa | 0 mm | - | - | - |
| 1778291289 | 6.11° C | 85% | 1025.5 hPa | 0 mm | - | - | - |
* Rain latest hour (hover to see other rain measurements)
** Current wind speed in m/s (hover to see current wind gust speed)